Time,TemperatureF,DewpointF,PressureIn,WindDirection,WindDirectionDegrees,WindSpeedMPH,WindSpeedGustMPH,Humidity,HourlyPrecipIn,Conditions,Clouds,dailyrainin,SoftwareType,DateUTC
2013-09-09 00:24:00,61.0,58.0,-100.00,NW,320,0.0,2.0,89,-99.99,,,-99.99,,2013-09-09 04:24:00,
2013-09-09 00:54:00,60.0,57.0,-100.00,NNW,330,0.0,1.0,92,-99.99,,,-99.99,,2013-09-09 04:54:00,
2013-09-09 01:23:00,58.0,57.0,-100.00,NNW,335,0.0,1.0,94,-99.99,,,-99.99,,2013-09-09 05:23:00,
2013-09-09 01:53:00,58.0,57.0,-100.00,NNW,340,0.0,2.0,95,-99.99,,,-99.99,,2013-09-09 05:53:00,
2013-09-09 02:22:00,57.0,56.0,-100.00,NNW,345,0.0,0.0,96,-99.99,,,-99.99,,2013-09-09 06:22:00,
2013-09-09 02:42:00,57.0,56.0,-100.00,NNW,345,0.0,1.0,96,-99.99,,,-99.99,,2013-09-09 06:42:00,
2013-09-09 02:52:00,57.0,56.0,-100.00,NNW,345,0.0,1.0,96,-99.99,,,-99.99,,2013-09-09 06:52:00,
2013-09-09 03:10:00,56.0,56.0,-100.00,North,350,0.0,1.0,96,-99.99,,,-99.99,,2013-09-09 07:10:00,
2013-09-09 03:11:00,57.0,56.0,-100.00,North,350,0.0,0.0,96,-99.99,,,-99.99,,2013-09-09 07:11:00,
2013-09-09 03:22:00,56.0,56.0,-100.00,North,350,0.0,0.0,96,-99.99,,,-99.99,,2013-09-09 07:22:00,
2013-09-09 03:43:00,56.0,56.0,-100.00,North,350,0.0,1.0,96,-99.99,,,-99.99,,2013-09-09 07:43:00,
2013-09-09 03:52:00,56.0,56.0,-100.00,North,350,0.0,1.0,96,-99.99,,,-99.99,,2013-09-09 07:52:00,
2013-09-09 04:02:00,56.0,56.0,-100.00,North,350,0.0,1.0,96,-99.99,,,-99.99,,2013-09-09 08:02:00,
2013-09-09 04:43:00,56.0,56.0,-100.00,North,350,0.0,1.0,96,-99.99,,,-99.99,,2013-09-09 08:43:00,
2013-09-09 04:52:00,57.0,56.0,-100.00,North,350,0.0,2.0,96,-99.99,,,-99.99,,2013-09-09 08:52:00,
2013-09-09 05:02:00,57.0,56.0,-100.00,North,350,0.0,2.0,96,-99.99,,,-99.99,,2013-09-09 09:02:00,
2013-09-09 05:12:00,57.0,56.0,-100.00,North,350,0.0,2.0,96,-99.99,,,-99.99,,2013-09-09 09:12:00,
2013-09-09 05:22:00,57.0,56.0,-100.00,North,350,0.0,2.0,96,-99.99,,,-99.99,,2013-09-09 09:22:00,
2013-09-09 05:54:00,58.0,57.0,-100.00,NNW,345,0.0,3.0,96,-99.99,,,-99.99,,2013-09-09 09:54:00,
2013-09-09 06:23:00,60.0,55.0,-100.00,WNW,295,1.0,4.0,83,-99.99,,,-99.99,,2013-09-09 10:23:00,
2013-09-09 06:52:00,60.0,54.0,-100.00,West,280,2.0,3.0,80,-99.99,,,-99.99,,2013-09-09 10:52:00,
2013-09-09 07:22:00,60.0,54.0,-100.00,WNW,285,0.0,2.0,80,-99.99,,,-99.99,,2013-09-09 11:22:00,
2013-09-09 07:42:00,60.0,55.0,-100.00,WNW,285,0.0,1.0,81,-99.99,,,-99.99,,2013-09-09 11:42:00,
2013-09-09 07:52:00,59.0,56.0,-100.00,NW,310,0.0,0.0,88,-99.99,,,-99.99,,2013-09-09 11:52:00,
2013-09-09 08:22:00,59.0,57.0,-100.00,NNW,330,0.0,0.0,93,-99.99,,,-99.99,,2013-09-09 12:22:00,
2013-09-09 08:42:00,59.0,57.0,-100.00,NNW,340,0.0,0.0,94,-99.99,,,-99.99,,2013-09-09 12:42:00,
2013-09-09 08:52:00,59.0,58.0,-100.00,NNW,340,1.0,2.0,95,-99.99,,,-99.99,,2013-09-09 12:52:00,
2013-09-09 09:22:00,59.0,58.0,-100.00,NNW,345,1.0,2.0,96,-99.99,,,-99.99,,2013-09-09 13:22:00,
2013-09-09 09:52:00,60.0,59.0,-100.00,North,350,1.0,2.0,96,-99.99,,,-99.99,,2013-09-09 13:52:00,
2013-09-09 10:22:00,61.0,60.0,-100.00,North,350,0.0,2.0,96,-99.99,,,-99.99,,2013-09-09 14:22:00,
2013-09-09 10:52:00,61.0,60.0,-100.00,North,350,1.0,2.0,96,-99.99,,,-99.99,,2013-09-09 14:52:00,
2013-09-09 11:02:00,61.0,60.0,-100.00,North,350,1.0,2.0,96,-99.99,,,-99.99,,2013-09-09 15:02:00,
2013-09-09 11:22:00,63.0,62.0,-100.00,North,350,0.0,1.0,96,-99.99,,,-99.99,,2013-09-09 15:22:00,
2013-09-09 11:53:00,63.0,62.0,-100.00,North,350,0.0,1.0,96,-99.99,,,-99.99,,2013-09-09 15:53:00,
2013-09-09 12:24:00,65.0,64.0,-100.00,North,350,0.0,1.0,96,-99.99,,,-99.99,,2013-09-09 16:24:00,
2013-09-09 12:54:00,66.0,65.0,-100.00,North,350,1.0,2.0,96,-99.99,,,-99.99,,2013-09-09 16:54:00,
2013-09-09 13:23:00,67.0,66.0,-100.00,North,350,0.0,1.0,96,-99.99,,,-99.99,,2013-09-09 17:23:00,
2013-09-09 13:43:00,68.0,67.0,-100.00,North,350,0.0,2.0,96,-99.99,,,-99.99,,2013-09-09 17:43:00,
2013-09-09 13:53:00,70.0,69.0,-100.00,NNW,340,0.0,1.0,94,-99.99,,,-99.99,,2013-09-09 17:53:00,
2013-09-09 14:02:00,70.0,69.0,-100.00,NNW,340,0.0,1.0,94,-99.99,,,-99.99,,2013-09-09 18:02:00,
2013-09-09 14:22:00,72.0,68.0,-100.00,WNW,300,0.0,2.0,85,-99.99,,,-99.99,,2013-09-09 18:22:00,
2013-09-09 14:32:00,72.0,68.0,-100.00,WNW,300,0.0,2.0,85,-99.99,,,-99.99,,2013-09-09 18:32:00,
2013-09-09 14:52:00,76.0,69.0,-100.00,West,275,2.0,4.0,79,-99.99,,,-99.99,,2013-09-09 18:52:00,
2013-09-09 15:12:00,76.0,69.0,-100.00,West,275,0.0,4.0,79,-99.99,,,-99.99,,2013-09-09 19:12:00,
2013-09-09 15:22:00,77.0,70.0,-100.00,West,275,0.0,4.0,78,-99.99,,,-99.99,,2013-09-09 19:22:00,
2013-09-09 15:52:00,78.0,71.0,-100.00,West,275,2.0,3.0,77,-99.99,,,-99.99,,2013-09-09 19:52:00,
2013-09-09 16:12:00,79.0,71.0,-100.00,West,265,1.0,4.0,76,-99.99,,,-99.99,,2013-09-09 20:12:00,
2013-09-09 16:22:00,79.0,71.0,-100.00,West,265,1.0,4.0,76,-99.99,,,-99.99,,2013-09-09 20:22:00,
2013-09-09 16:53:00,81.0,71.0,-100.00,WSW,245,0.0,2.0,70,-99.99,,,-99.99,,2013-09-09 20:53:00,
2013-09-09 17:22:00,81.0,71.0,-100.00,WSW,245,0.0,1.0,71,-99.99,,,-99.99,,2013-09-09 21:22:00,
2013-09-09 17:54:00,81.0,73.0,-100.00,West,260,0.0,1.0,75,-99.99,,,-99.99,,2013-09-09 21:54:00,
2013-09-09 18:05:00,81.0,73.0,-100.00,West,260,0.0,1.0,75,-99.99,,,-99.99,,2013-09-09 22:05:00,
2013-09-09 18:24:00,82.0,73.0,-100.00,WSW,250,0.0,1.0,73,-99.99,,,-99.99,,2013-09-09 22:24:00,
2013-09-09 19:52:00,79.0,77.0,-100.00,NNW,335,0.0,0.0,93,-99.99,,,-99.99,,2013-09-09 23:52:00,
2013-09-09 20:22:00,77.0,76.0,-100.00,NNW,345,0.0,0.0,95,-99.99,,,-99.99,,2013-09-10 00:22:00,
2013-09-09 20:52:00,76.0,75.0,-100.00,NNW,345,0.0,1.0,96,-99.99,,,-99.99,,2013-09-10 00:52:00,
2013-09-09 21:11:00,75.0,74.0,-100.00,NNW,345,0.0,0.0,96,-99.99,,,-99.99,,2013-09-10 01:11:00,
2013-09-09 21:21:00,75.0,74.0,-100.00,NNW,345,0.0,0.0,96,-99.99,,,-99.99,,2013-09-10 01:21:00,
2013-09-09 21:53:00,73.0,72.0,-100.00,North,350,0.0,0.0,96,-99.99,,,-99.99,,2013-09-10 01:53:00,
2013-09-09 22:22:00,73.0,72.0,-100.00,North,350,1.0,1.0,96,-99.99,,,-99.99,,2013-09-10 02:22:00,
2013-09-09 22:52:00,72.0,71.0,-100.00,North,350,0.0,1.0,96,-99.99,,,-99.99,,2013-09-10 02:52:00,
2013-09-09 23:22:00,71.0,71.0,-100.00,North,350,0.0,2.0,97,-99.99,,,-99.99,,2013-09-10 03:22:00,
2013-09-09 23:54:00,73.0,72.0,-100.00,North,350,1.0,3.0,97,-99.99,,,-99.99,,2013-09-10 03:54:00,